FORMOSAT-3 FM1 (29048 NORAD) Tracking and Keplerian Element Data

This shows tracking and keplerian element data for the satellite.

Feedback or suggestion? Click here.




ElementValue
Catalog29048
NameFORMOSAT-3 FM1
Epoch Orbit64431
Epoch Day202.79529432
Epoch Year2018
RAAN3.4752
Inclination71.9675
Eccentricity0.0042931
Argument of Perigee141.0516
Mean Anonmoly219.3727
Mean Motion14.2858075
Decay Rate3.8E-07
L11 29048U 06011B 18202.79529432 .00000038 00000-0 31392-4 0 9998
L22 29048 71.9675 3.4752 0042931 141.0516 219.3727 14.28580750644317

Live tracking and technical data element details for FORMOSAT-3 FM1 (NORAD 29048). FORMOSAT-3 FM1 can be tracked NOW for your location showing map with azimuth and elevation plus other details from your city location.

Track the satellite on the map from your city or location and see movement details for azimuth, elevation, latitude, longitude, range, height, and movement on the map or in text.







IsCatalogInMostPopularTable: catalog: 29048, numindb: 32
Update: records affected: 1



GetName: 29048 FORMOSAT-3 FM1

Hit Count: updated at: Mon, 23 Jul 2018 07:59:55 GMT